Regional Weather Roundup
Issued by NWS

Home | Current Version | Previous Version | Text Only | Print | Product List | Glossary On
Versions: 1 2 3 4 5 6 7 8 9 10 11 12 13 14 15 16 17 18 19 20 21 22 23 24 25 26 27 28 29 30 31 32 33 34 35 36 37 38 39 40 41 42 43 44 45 46 47 48 49 50
000
ASUS44 KBMX 210710
RWRAL

ALABAMA REGIONAL WEATHER ROUNDUP
NATIONAL WEATHER SERVICE BIRMINGHAM AL
200 AM CDT THU SEP 21 2017

NOTE: "FAIR" INDICATES FEW OR NO CLOUDS BELOW 12,000 FEET
WITH NO SIGNIFICANT WEATHER AND/OR OBSTRUCTIONS TO VISIBILITY.

THE REMARK "TC" DENOTES TEMPERATURE IN DEGREES CELSIUS.

ALZ001>011-014-016>018-020-210800-
NORTH ALABAMA

CITY           SKY/WX    TMP DP  RH WIND       PRES   REMARKS
MUSCLE SHOALS  CLEAR     69  67  93 CALM      30.03S FOG
HUNTSVILLE     CLEAR     72  72 100 CALM      30.03S
DECATUR        CLEAR     68  68 100 CALM      30.03S FOG
HALEYVILLE     FAIR      68  68 100 CALM      30.06S FOG
GADSDEN        FOG       66  66 100 CALM      30.04S VSB 3/4
$$

ALZ012-013-022-023-030>036-040>044-210800-
WEST CENTRAL ALABAMA

CITY           SKY/WX    TMP DP  RH WIND       PRES   REMARKS
TUSCALOOSA     CLEAR     72  72 100 CALM      30.01S FOG
DEMOPOLIS        N/A     71  71 100 CALM      30.01R FOG
$$

ALZ015-024>026-033>036-041>044-210800-
CENTRAL ALABAMA

CITY           SKY/WX    TMP DP  RH WIND       PRES   REMARKS
BIRMINGHAM     CLEAR     70  69  97 CALM      30.05S
MONTGOMERY     PTCLDY    75  70  84 N3        30.00F
SHELBY CO ARPT CLEAR     71  71 100 CALM      30.03S FOG
MAXWELL AFB    PTCLDY    74  74 100 CALM      29.99F
GREENVILLE     FAIR      73  69  87 CALM      30.00S
SELMA          FOG       70  70 100 CALM      30.00S VSB 1/2
PRATTVILLE     FAIR      69  69 100 CALM      30.00F FOG
BESSEMER       FAIR      71  70  96 CALM      30.04S
TALLADEGA      FAIR     N/A N/A N/A MISG      30.04S HAZE
PELL CITY      FOG       68  68 100 CALM      30.04S VSB 0
MARION         PTSUNNY   72  72 100 CALM      30.00F
SYLACAUGA      MOCLDY    67  67 100 CALM      30.03F
$$

ALZ019-021-028-029-037-038-045>048-210800-
EAST CENTRAL ALABAMA

CITY           SKY/WX    TMP DP  RH WIND       PRES   REMARKS
ANNISTON       CLEAR     68  66  93 E3        30.04S
ALEXANDER CITY CLEAR     70  69  96 CALM      30.03S
AUBURN         NOT AVBL
$$

ALZ051>064-210800-
SOUTHWEST ALABAMA

CITY           SKY/WX    TMP DP  RH WIND       PRES   REMARKS
MOBILE         MOCLDY    72  70  93 N3        30.01S
BROOKLEY FIELD CLOUDY    73  73 100 NW3       30.01S
EVERGREEN      CLEAR     71  70  96 N3        30.00F
$$

ALZ049-050-065>069-210800-
SOUTHEAST ALABAMA

CITY           SKY/WX    TMP DP  RH WIND       PRES   REMARKS
DOTHAN         PTCLDY    75  75 100 W3        30.02F
OZARK          MOCLDY    73  72  95 W5        29.98F
TROY           FOG       70  70 100 CALM      30.00F VSB 1/2
EUFAULA        FAIR      72  71  97 CALM      29.98F FOG
$$



USA.gov is the U.S. government's official web portal to all federal, state and local government web resources and services.